Starlink 31879

operational
NORAD ID: 59937 Int'l Des: 2024-106 Owner: SPXS Country: US Constellation: starlink
LEOCIRCULAR

Über Starlink 31879

Beschreibung wird geladen...

Live-Position

3D-Globus wird geladen...

Nächste Überflüge

Höhenverlauf

Altitude vs Time

uPlot chart will show altitude changes over time

Zweizeiliger Elementsatz

1 59937U 24106R 25302.82482557 -.00003017 00000-0 -10021-3 0 9999
2 59937 42.9996 352.0088 0000386 315.2753 44.8068 15.27564281 80552
Epoch: 29. Okt. 2025 • Age: 30 hours

Aktueller Status

Höhe 485.4 km
Geschwindigkeit 7.63 km/s
Subsatellitenpunkt 38.07°N, 36.85°E
Startdatum 1. Juni 2024
Alter 1.4 years
Typ internet

Technische Details

Klassifizierung Payload
Masse 730.00 kg
Trockenmasse 700.00 kg
Gesamtmasse 730.00 kg
Länge 0.30 m
Durchmesser 4.10 m
Spannweite 29.00 m
Form Box + pan
Hersteller SPXS
Bus-Typ Starlink V2M
Phasenstatus In Orbit
Besitzer/Staat SPXS/US

Große Konstellationen

Loading constellations...